Wind_Speed
23 25 26 27 27 28 29 29 30 31 32 33 34 36 37 37 38 38 37 37 36 36 36 37 37 39 40 42 43 44 45 47 47 47 49 48 47 47 45 45 44 44 43
25 27 28 28 29 30 31 32 33 34 36 37 38 39 40 41 41 40 39 38 37 36 36 37 37 38 39 40 42 43 44 46 47 48 49 50 49 49 48 46 46 45 44
27 28 29 30 31 33 33 34 36 37 38 40 41 42 43 43 42 41 40 39 37 37 36 36 36 37 38 39 40 42 43 45 47 48 48 50 50 50 50 49 47 46 45
29 30 31 32 33 34 35 37 39 40 42 43 44 45 45 44 43 42 40 39 37 36 36 35 35 36 37 38 39 40 42 44 45 47 48 49 50 50 50 49 49 47 46
30 31 32 34 35 36 38 40 42 43 45 46 46 46 45 44 43 41 40 38 37 36 35 35 35 35 36 37 38 40 41 43 45 47 48 50 50 51 51 50 49 48 47
31 32 33 35 36 38 41 43 45 46 47 47 47 45 44 43 42 40 38 36 36 35 35 35 35 34 35 36 38 40 42 43 45 47 48 50 51 52 52 52 51 50 49
32 33 34 36 37 40 43 45 47 47 47 47 46 44 43 42 40 38 36 35 34 34 34 34 34 34 35 35 37 39 41 43 45 47 49 50 51 52 53 53 53 52 50
33 35 36 37 40 43 46 48 49 49 48 47 45 43 41 40 38 36 35 33 32 32 32 33 33 34 35 36 37 38 40 42 45 47 49 51 53 54 54 54 54 53 52
34 36 37 40 42 45 48 50 50 50 48 45 43 41 39 38 36 35 33 32 31 31 31 31 32 33 34 35 36 38 39 41 44 46 49 51 53 55 56 56 56 55 53
37 38 40 42 45 48 50 51 51 49 46 43 41 39 37 36 34 33 32 31 30 30 31 32 32 33 34 35 35 36 37 39 42 45 48 50 53 55 57 58 58 57 55
39 40 42 45 47 49 51 52 51 48 45 42 39 38 36 34 33 32 31 30 29 29 30 30 31 31 32 33 33 34 35 38 41 43 46 49 53 55 57 59 59 59 57
41 43 46 48 49 51 52 51 50 47 43 40 38 36 35 33 32 31 30 29 28 29 29 29 29 29 29 31 32 33 35 37 39 42 45 48 51 53 56 59 60 60 59
43 45 47 49 51 52 52 51 49 46 42 39 37 35 34 33 31 30 29 28 27 27 27 27 27 28 28 28 29 30 32 35 38 41 43 47 50 53 56 58 60 61 61
46 48 50 52 52 51 51 50 48 45 41 38 36 34 33 32 31 30 29 28 28 27 27 26 26 26 27 26 27 29 30 32 35 38 41 45 49 52 55 58 60 61 62
48 50 51 52 52 51 50 48 46 43 40 38 36 33 32 31 31 30 29 28 28 27 26 25 25 25 25 25 26 27 29 30 32 35 39 43 47 51 54 58 60 62 62
51 52 52 53 52 51 49 47 44 41 39 37 35 33 32 31 30 29 29 28 27 26 25 24 24 24 23 24 24 25 25 26 27 30 35 40 44 49 52 56 60 61 62
54 54 54 53 52 50 48 45 42 40 38 36 35 33 31 30 29 29 29 28 27 25 24 22 22 21 21 22 22 22 21 21 22 24 28 34 40 45 49 54 58 60 61
56 56 55 53 51 48 46 43 41 39 37 35 34 33 31 29 29 29 28 27 25 24 22 21 20 20 19 20 20 19 17 17 18 20 23 28 34 40 45 51 55 58 59
57 56 54 52 49 46 44 41 39 37 35 34 33 31 30 29 29 29 27 26 25 23 21 19 19 19 18 17 17 16 14 13 14 16 18 23 30 36 41 47 52 55 57
58 56 53 50 47 45 42 40 38 36 34 32 31 29 28 28 27 27 26 25 24 22 20 19 18 17 16 14 14 13 12 11 10 12 14 19 26 32 38 43 48 52 55
57 55 51 48 45 42 40 38 36 34 32 30 29 28 27 26 26 25 25 24 23 22 20 18 17 16 14 13 12 11 11 9 8 11 14 18 23 29 35 41 45 49 51
54 52 49 46 43 40 38 36 34 32 30 28 27 27 26 24 24 24 24 24 22 21 19 17 16 14 13 12 11 10 9 8 8 11 15 18 22 28 33 38 42 46 48
50 48 45 43 40 37 35 33 31 30 27 26 25 25 24 23 23 23 23 23 22 20 19 17 15 13 12 12 11 10 9 8 9 11 15 18 22 26 32 36 40 43 46
46 44 42 39 37 34 33 31 30 28 25 24 24 23 23 22 22 22 22 21 20 18 17 15 13 12 12 12 12 11 10 10 10 11 14 17 21 26 30 34 38 40 44
43 40 38 35 33 32 31 30 28 26 24 23 22 21 21 20 20 20 20 19 18 16 15 14 12 11 11 11 12 12 11 12 12 13 15 18 21 25 30 33 36 38 42
38 36 35 32 31 30 29 27 25 24 23 21 20 20 19 19 18 18 18 17 16 15 14 12 11 10 10 11 12 12 12 12 12 13 15 18 21 25 29 33 36 38 41
Wind_Direction
323 324 324 323 322 321 319 318 317 316 314 312 312 310 309 307 305 302 299 296 292 287 282 277 273 269 264 260 255 252 248 246 244 243 241 238 237 236 235 235 235 235 233
325 325 325 324 324 322 320 318 317 316 315 313 312 310 309 306 305 302 299 296 292 287 282 277 272 268 264 260 256 252 249 245 243 241 241 239 237 236 235 234 234 234 234
327 326 326 326 325 324 322 320 318 317 315 314 312 311 309 306 304 302 299 296 292 287 282 277 272 268 264 261 257 253 249 245 242 240 240 239 238 237 235 234 234 234 233
327 327 327 326 325 324 323 320 319 317 316 314 312 310 308 306 304 302 299 296 292 287 282 277 273 269 264 261 257 253 249 246 242 240 238 238 238 237 235 233 233 233 232
327 327 327 326 325 323 322 320 318 317 316 314 313 310 308 305 303 301 299 296 292 287 282 278 274 270 266 261 258 255 251 247 243 240 238 237 237 236 235 233 233 232 231
326 326 326 326 325 324 323 322 320 319 317 315 314 311 308 305 303 301 299 295 291 287 284 280 276 272 268 264 259 255 252 248 244 241 238 237 236 236 235 233 232 232 231
323 324 324 324 324 325 325 325 323 321 319 317 315 312 309 306 304 301 299 296 292 289 286 282 278 274 271 266 261 256 252 249 245 242 239 236 235 235 234 233 231 231 231
321 322 323 323 323 325 326 326 325 323 321 319 316 313 310 308 305 302 300 297 294 290 287 283 280 276 272 268 263 258 254 251 246 243 240 237 234 233 233 232 230 229 229
320 322 323 324 324 325 327 327 326 324 322 320 317 313 311 309 307 304 301 298 295 292 289 286 282 278 275 271 266 260 256 252 247 244 241 237 234 232 231 230 228 228 228
318 320 323 324 325 326 327 327 326 325 323 321 318 315 313 310 309 306 303 300 296 293 291 287 283 279 276 273 268 263 257 252 249 245 241 238 235 232 230 229 227 227 227
317 319 321 323 325 326 327 326 325 325 323 321 318 316 314 312 310 307 305 301 298 296 293 289 286 282 278 273 268 263 258 254 250 247 243 239 235 233 230 228 226 226 226
316 318 319 320 324 325 326 325 325 324 323 320 319 317 315 313 311 308 306 303 301 299 295 291 288 285 281 276 271 265 260 256 253 248 245 239 235 232 229 227 225 224 224
314 316 316 319 323 324 324 324 324 324 322 320 319 318 316 314 312 310 308 305 303 302 298 294 290 288 284 281 275 269 264 259 255 250 245 240 234 231 228 225 223 222 221
311 313 315 319 322 322 322 322 322 322 321 321 320 318 316 314 313 311 309 307 304 303 301 296 292 289 286 283 279 274 269 263 257 251 244 238 232 229 226 223 221 219 219
311 313 315 318 319 320 320 320 319 319 320 320 319 318 316 314 312 312 310 308 307 305 302 299 297 293 290 288 285 280 274 269 261 252 243 236 231 227 224 221 219 217 217
309 310 313 315 317 317 317 317 316 316 317 317 318 317 316 313 312 313 312 310 308 306 304 303 301 296 293 292 290 286 279 271 263 253 242 235 229 224 221 218 216 215 215
307 309 311 313 314 314 314 314 314 313 314 315 316 316 315 314 313 314 313 312 310 308 305 303 303 301 298 297 295 291 284 275 263 251 240 232 225 220 218 214 212 211 212
305 308 310 310 311 311 311 311 311 310 311 312 313 314 314 314 313 314 315 313 312 309 305 302 302 302 300 300 298 294 288 279 263 250 237 225 219 215 213 210 209 208 209
304 306 308 308 307 307 307 308 308 307 307 309 310 311 312 313 314 315 315 314 313 311 305 301 300 301 300 299 298 296 293 283 263 246 232 219 212 208 206 205 205 204 206
303 304 305 304 304 304 304 304 304 304 304 306 307 308 309 311 313 314 315 314 313 312 308 302 299 300 297 297 298 296 292 284 262 237 220 208 203 201 201 201 202 203 204
301 302 301 300 300 300 300 301 301 301 302 303 305 306 307 309 311 313 314 314 313 310 307 302 296 293 291 288 292 293 286 276 255 220 206 199 194 195 197 198 199 201 202
298 297 297 297 297 297 297 297 297 298 298 300 302 304 306 307 310 312 313 313 311 308 305 300 294 287 282 279 279 284 279 264 241 215 202 198 194 193 194 195 198 199 201
295 294 293 293 293 293 292 291 292 294 295 297 300 302 304 305 307 310 312 311 310 307 301 297 289 281 276 270 265 266 263 250 227 214 203 200 196 193 193 194 195 197 199
291 291 290 289 289 287 287 287 288 289 291 294 297 300 302 303 306 310 314 313 311 309 304 297 287 274 268 261 254 250 244 234 221 208 198 196 195 193 192 191 192 194 196
289 288 286 285 284 282 283 283 284 285 286 289 294 298 300 302 305 310 315 316 314 310 305 299 288 273 262 252 241 236 231 224 216 207 197 194 194 194 192 191 192 194 195
285 283 283 281 280 279 280 280 280 281 281 284 290 295 297 301 304 308 313 317 317 312 307 298 290 275 258 243 230 222 217 214 207 199 193 190 190 191 191 190 191 192 192
Height
5823 5819 5814 5810 5806 5801 5797 5793 5788 5784 5779 5774 5770 5765 5760 5756 5751 5747 5743 5739 5736 5733 5730 5728 5726 5725 5725 5726 5727 5729 5732 5735 5739 5742 5745 5749 5754 5759 5764 5769 5773 5778 5783
5817 5813 5808 5804 5799 5794 5790 5785 5781 5776 5770 5765 5760 5755 5749 5744 5740 5735 5731 5727 5723 5720 5717 5715 5714 5713 5712 5713 5714 5716 5719 5722 5726 5730 5733 5738 5742 5748 5753 5759 5764 5768 5773
5811 5806 5802 5797 5792 5787 5782 5777 5772 5767 5761 5755 5750 5744 5738 5732 5727 5722 5718 5714 5710 5707 5705 5702 5701 5700 5700 5700 5701 5703 5706 5709 5713 5718 5722 5726 5731 5736 5742 5748 5753 5759 5764
5805 5800 5795 5790 5785 5780 5775 5769 5763 5758 5752 5745 5739 5732 5726 5720 5715 5710 5705 5701 5698 5695 5692 5690 5689 5688 5688 5688 5689 5691 5693 5696 5700 5705 5709 5714 5719 5724 5730 5737 5743 5748 5754
5798 5794 5789 5783 5778 5773 5767 5761 5754 5748 5741 5734 5728 5721 5714 5708 5703 5698 5693 5689 5685 5682 5680 5678 5676 5676 5675 5676 5677 5678 5680 5684 5687 5692 5697 5702 5707 5712 5719 5725 5731 5737 5744
5792 5787 5782 5776 5771 5765 5759 5752 5745 5738 5731 5723 5716 5709 5702 5696 5691 5686 5681 5677 5673 5670 5667 5665 5664 5663 5663 5663 5664 5665 5668 5670 5674 5679 5684 5689 5695 5700 5706 5713 5720 5727 5734
5785 5780 5775 5769 5763 5757 5750 5743 5735 5727 5720 5712 5705 5697 5691 5685 5679 5674 5669 5665 5662 5658 5656 5653 5652 5651 5650 5650 5651 5652 5654 5657 5660 5664 5670 5676 5682 5688 5695 5702 5708 5715 5723
5778 5773 5767 5761 5755 5748 5740 5733 5725 5717 5709 5701 5693 5686 5680 5674 5668 5663 5659 5655 5651 5647 5645 5642 5640 5638 5637 5637 5637 5639 5640 5643 5646 5650 5656 5662 5667 5673 5681 5688 5696 5703 5711
5770 5765 5759 5752 5746 5738 5730 5722 5714 5706 5698 5690 5682 5675 5669 5663 5658 5653 5648 5644 5640 5637 5634 5631 5629 5627 5625 5624 5624 5625 5626 5629 5631 5635 5641 5646 5653 5660 5667 5675 5684 5692 5699
5761 5756 5749 5743 5736 5728 5720 5712 5704 5695 5687 5679 5672 5665 5659 5653 5648 5643 5638 5634 5631 5627 5623 5620 5617 5615 5613 5611 5610 5611 5613 5615 5617 5621 5626 5631 5638 5645 5652 5661 5670 5679 5688
5752 5746 5740 5733 5726 5718 5710 5702 5693 5685 5677 5670 5663 5656 5650 5644 5639 5634 5629 5625 5621 5617 5613 5609 5606 5603 5601 5599 5598 5599 5600 5601 5603 5607 5611 5616 5623 5630 5638 5648 5657 5667 5676
5743 5737 5730 5723 5716 5708 5699 5691 5683 5675 5668 5660 5653 5647 5641 5635 5630 5625 5620 5616 5611 5607 5603 5599 5596 5593 5590 5588 5586 5586 5586 5587 5589 5592 5596 5602 5608 5616 5624 5633 5643 5653 5663
5732 5726 5720 5712 5705 5697 5688 5680 5673 5665 5658 5651 5645 5638 5632 5626 5621 5616 5611 5607 5602 5598 5593 5589 5586 5582 5580 5577 5575 5573 5573 5574 5575 5578 5581 5586 5593 5600 5608 5618 5628 5639 5649
5721 5715 5709 5701 5694 5685 5678 5670 5663 5656 5649 5643 5636 5630 5624 5618 5613 5608 5603 5598 5593 5589 5584 5580 5576 5573 5570 5567 5564 5562 5561 5561 5561 5563 5566 5570 5577 5584 5593 5603 5614 5625 5636
5710 5704 5697 5690 5682 5675 5667 5660 5653 5646 5640 5634 5628 5622 5616 5611 5605 5600 5594 5590 5585 5580 5576 5572 5568 5564 5561 5558 5555 5552 5550 5548 5548 5548 5551 5555 5562 5570 5579 5589 5600 5612 5624
5698 5692 5685 5678 5671 5663 5656 5650 5643 5637 5631 5625 5619 5614 5608 5603 5597 5592 5587 5582 5577 5572 5568 5563 5560 5556 5552 5549 5546 5543 5539 5537 5536 5535 5537 5542 5548 5556 5565 5576 5587 5600 5613
5686 5680 5673 5666 5659 5652 5646 5639 5633 5627 5621 5616 5611 5605 5600 5595 5590 5584 5579 5574 5569 5564 5560 5556 5552 5549 5545 5542 5538 5534 5531 5528 5526 5526 5527 5530 5536 5544 5553 5564 5576 5589 5601
5673 5667 5661 5654 5647 5641 5634 5629 5623 5617 5612 5607 5601 5597 5592 5587 5582 5577 5571 5566 5561 5557 5553 5549 5546 5542 5539 5535 5532 5528 5525 5522 5520 5519 5520 5523 5527 5535 5544 5555 5566 5580 5592
5659 5653 5647 5641 5635 5629 5623 5618 5613 5608 5603 5598 5593 5588 5583 5579 5574 5569 5564 5559 5554 5550 5546 5543 5540 5537 5533 5530 5527 5523 5520 5518 5516 5515 5515 5517 5522 5528 5537 5547 5559 5571 5583
5645 5639 5633 5628 5622 5617 5612 5607 5603 5598 5594 5590 5585 5581 5576 5572 5567 5562 5557 5552 5548 5544 5540 5537 5534 5531 5529 5526 5523 5520 5517 5515 5513 5513 5513 5515 5519 5525 5533 5542 5553 5565 5577
5629 5624 5619 5614 5609 5605 5601 5596 5592 5589 5585 5581 5577 5573 5569 5565 5560 5556 5551 5546 5542 5538 5534 5531 5529 5526 5524 5522 5520 5518 5516 5514 5513 5512 5513 5515 5519 5524 5531 5540 5549 5560 5571
5613 5609 5605 5601 5597 5593 5589 5586 5582 5579 5576 5573 5569 5565 5561 5558 5554 5549 5545 5540 5536 5532 5529 5525 5523 5521 5520 5518 5517 5516 5514 5513 5512 5512 5514 5516 5519 5524 5530 5538 5546 5556 5566
5598 5594 5590 5587 5584 5581 5578 5575 5572 5570 5567 5564 5561 5558 5555 5551 5547 5543 5538 5534 5530 5526 5523 5520 5518 5517 5515 5515 5514 5513 5512 5511 5511 5512 5514 5516 5520 5524 5529 5536 5544 5552 5562
5582 5579 5576 5574 5572 5569 5567 5565 5563 5561 5559 5556 5554 5551 5547 5544 5540 5536 5532 5528 5524 5520 5517 5515 5513 5512 5511 5510 5510 5510 5510 5510 5511 5511 5513 5516 5519 5523 5528 5534 5541 5549 5558
5568 5565 5563 5561 5559 5558 5556 5554 5553 5552 5550 5549 5546 5544 5541 5538 5534 5531 5527 5523 5519 5515 5512 5510 5508 5507 5507 5506 5506 5507 5508 5509 5510 5511 5512 5515 5518 5522 5526 5532 5539 5546 5555
5554 5552 5550 5549 5548 5547 5546 5545 5544 5543 5542 5541 5539 5537 5534 5532 5529 5525 5522 5518 5514 5511 5508 5505 5504 5503 5502 5502 5503 5504 5506 5507 5508 5510 5511 5514 5517 5521 5526 5531 5538 5544 5552